Powrót do katalogu

STARLINK-30781

AktywnyŁącznośćVLEO
NORAD 58123·PAYLOAD·🇺🇸 United States

Wystrzelony Oct 22, 2023 z Cape Canaveral Space Force Station

Loading…

Następne Przeloty (najbliższe 24 godziny)

TLE

ŚwieżeSource: CelesTrak SupGP

Epoka: Sep 14, 2026, 22:29 UTC

1 58123C 23162F   26257.93729167  .00001648  00000+0  59695-4 0  2572
2 58123  43.0011 143.5992 0001691 262.8144  22.3691 15.27571184    12

Śledź STARLINK-30781 w czasie rzeczywistym z AllMySat

Download on the App Store